Location: Unspecified
(0.0000°N, 0.0000°E)
Time: 05:41:48
(UTC+00:00)

Envisat - Pass Details

Date: 03 August 2021
Orbit: 764 x 766 km, 98.2° (Epoch: 23 September)

Event Time Altitude Azimuth Distance (km) Brightness Sun altitude
Rises 03:43:26 0° 51° (NE) 3,217 7.2 -33.8°
Reaches altitude 10° 03:47:27 10° 83° (E) 2,295 6.3 -32.9°
Maximum altitude 03:49:07 12° 103° (ESE) 2,188 5.9 -32.5°
Drops below altitude 10° 03:50:47 10° 122° (ESE) 2,298 5.8 -32.1°
Sets 03:54:47 0° 154° (SSE) 3,227 6.3 -31.2°
